アトラス彗星

C/2019 F2 ( ATLAS )

English version
Home page
Updated on July 9, 2019

---------------------------------------------------------------------

・ プロフィール

発見日 2019年3月26日
発見光度 17.5等
発見者 Asteroid Terrestrial-Impact Last Alert System (ATLAS) search program

・ 写真集

・ 軌道要素

Epoch 2019 Aug. 25.0 TT = JDT 2458720.5
T 2019 Sept. 8.90675 TT                                 MPCW
q   2.2327848            (2000.0)            P               Q
n   0.01466354     Peri.   10.95852     -0.99214558     +0.12282864
a  16.5314206      Node   175.87014     -0.12427785     -0.98941574
e   0.8649369      Incl.   19.18823     +0.01421846     -0.07726327
P  67.21
From 565 observations 2019 Feb. 26-May 24, mean residual 0".4.

・ 星図

・ 光度変化

        m1 = 11.0 + 5 logΔ + 10.0 log r

---------------------------------------------------------------------

軌道要素はM.P.E.C. 2019-L24に掲載されたものです。
星図はステラナビゲータ Ver.10 (アストロアーツ) で作成したものです。
光度グラフはComet for Windowsで作成したものです。

---------------------------------------------------------------------

Copyright(C) Seiichi Yoshida (comet@aerith.net). All rights reserved.